Dallas Addison, TX

1:29 AM CDT on August 23, 2017 (GMT -0500)
Addison

Weather History for KADS - March, 2013

Change the Weather History Date:

Monday, March 25, 2013

  Actual Average Record
Temperature  
Mean Temperature 42 °F -  
Max Temperature 51 °F 67 °F 84 °F (2011)
Min Temperature 32 °F 49 °F 32 °F (2013)
Degree Days  
Heating Degree Days 24    
Moisture  
Dew Point 17 °F    
Average Humidity 42    
Maximum Humidity 64    
Minimum Humidity 21    
Precipitation  
Precipitation 0.00 in - - ()
Sea Level Pressure  
Sea Level Pressure 30.30 in    
Wind  
Wind Speed 10 mph (NNW)    
Max Wind Speed 18 mph    
Max Gust Speed 25 mph    
Visibility 12 miles    
Events      
Averages and records for this station are not official NWS values.
T = Trace of Precipitation, MM = Missing Value Source: NWS Daily Summary

Daily Weather History Graph

Daily Weather History Graph

Search for Another Location

Airport or City:

Trip Planner

Search our weather history database for the weather conditions in past years. The results will help you decide how hot, cold, wet, or windy it might be!

Date:

Astronomy

Mar. 25, 2013 Rise Set
Actual Time 7:24 AM CDT 7:42 PM CDT
Civil Twilight 6:59 AM CDT 8:07 PM CDT
Nautical Twilight 6:30 AM CDT 8:36 PM CDT
Astronomical Twilight 6:01 AM CDT 9:05 PM CDT
Moon 6:18 PM CDT (3/25) 6:03 AM CDT (3/25)
Length of Visible Light 13h 08m
Length of Day
12h 18m
Waxing Gibbous, 96% of the Moon is Illuminated
Mar 25
Waxing Gibbous
Mar 27
Full
Apr 2
Last Quarter
Apr 10
New
Apr 18
First Quarter

Hourly Weather History & Observations

Time (CDT) Temp. Windchill Dew Point Humidity Pressure Visibility Wind Dir Wind Speed Gust Speed Precip Events Conditions
12:15 AM 39.2 °F 32.5 °F 17.6 °F 42% 30.19 in 10.0 mi North 10.4 mph - N/A   Clear
12:35 AM 37.4 °F 30.8 °F 19.4 °F 48% 30.19 in 10.0 mi North 9.2 mph - N/A   Clear
12:55 AM 37.4 °F 30.8 °F 19.4 °F 48% 30.20 in 10.0 mi North 9.2 mph - N/A   Clear
1:15 AM 37.4 °F 30.3 °F 19.4 °F 48% 30.21 in 10.0 mi North 10.4 mph - N/A   Clear
1:35 AM 37.4 °F 30.3 °F 19.4 °F 48% 30.22 in 10.0 mi North 10.4 mph - N/A   Clear
1:55 AM 37.4 °F 30.8 °F 19.4 °F 48% 30.23 in 10.0 mi North 9.2 mph - N/A   Clear
2:15 AM 37.4 °F 28.5 °F 17.6 °F 45% 30.24 in 10.0 mi North 15.0 mph 19.6 mph N/A   Clear
2:35 AM 35.6 °F 27.1 °F 17.6 °F 48% 30.24 in 10.0 mi North 12.7 mph 19.6 mph N/A   Clear
2:55 AM 35.6 °F 27.1 °F 19.4 °F 52% 30.24 in 10.0 mi North 12.7 mph - N/A   Clear
3:15 AM 35.6 °F 28.0 °F 19.4 °F 52% 30.24 in 10.0 mi North 10.4 mph 17.3 mph N/A   Clear
3:35 AM 35.6 °F 29.2 °F 19.4 °F 52% 30.24 in 10.0 mi North 8.1 mph - N/A   Clear
3:55 AM 33.8 °F 27.0 °F 19.4 °F 56% 30.24 in 10.0 mi North 8.1 mph - N/A   Clear
4:15 AM 33.8 °F 27.0 °F 19.4 °F 56% 30.25 in 10.0 mi North 8.1 mph - N/A   Clear
4:35 AM 33.8 °F 27.7 °F 19.4 °F 56% 30.25 in 10.0 mi NNW 6.9 mph - N/A   Clear
4:55 AM 33.8 °F 28.6 °F 19.4 °F 56% 30.26 in 10.0 mi NNW 5.8 mph - N/A   Clear
5:15 AM 32.0 °F 27.5 °F 19.4 °F 60% 30.26 in 10.0 mi NNW 4.6 mph - N/A   Clear
5:35 AM 33.8 °F 28.6 °F 19.4 °F 56% 30.27 in 10.0 mi NNW 5.8 mph - N/A   Clear
5:47 AM 33.8 °F 29.6 °F 19.4 °F 56% 30.28 in 13.0 mi WNW 4.6 mph - N/A   Clear
6:48 AM 33.8 °F 30.8 °F 21.2 °F 60% 30.30 in 13.0 mi West 3.5 mph - N/A   Clear
7:47 AM 32.0 °F 27.5 °F 21.2 °F 64% 30.32 in 13.0 mi West 4.6 mph - N/A   Clear
8:52 AM 37.4 °F 32.8 °F 19.4 °F 48% 30.35 in 13.0 mi WNW 5.8 mph - N/A   Clear
9:50 AM 42.8 °F 34.5 °F 19.4 °F 39% 30.37 in 13.0 mi North 18.4 mph 25.3 mph N/A   Clear
10:47 AM 42.8 °F 36.2 °F 21.2 °F 42% 30.39 in 13.0 mi NW 12.7 mph 21.9 mph N/A   Clear
11:53 AM 46.4 °F 41.5 °F 17.6 °F 32% 30.38 in 13.0 mi NW 10.4 mph 24.2 mph N/A   Clear
12:53 PM 48.2 °F - 17.6 °F 30% 30.37 in 13.0 mi NW 11.5 mph 25.3 mph N/A   Clear
1:47 PM 50.0 °F - 17.6 °F 28% 30.35 in 13.0 mi NNW 13.8 mph 25.3 mph N/A   Clear
3:55 PM 51.8 °F - 12.2 °F 21% 30.31 in 20.0 mi WNW 16.1 mph 24.2 mph N/A   Clear
4:47 PM 51.8 °F - 14.0 °F 22% 30.30 in 20.0 mi NW 12.7 mph 23.0 mph N/A   Clear
5:55 PM 51.8 °F - 12.2 °F 21% 30.29 in 20.0 mi NNW 16.1 mph 23.0 mph N/A   Clear
6:47 PM 50.0 °F - 12.2 °F 22% 30.31 in 20.0 mi NNW 13.8 mph 23.0 mph N/A   Clear
7:55 PM 48.2 °F - 12.2 °F 24% 30.33 in 20.0 mi NW 10.4 mph 15.0 mph N/A   Clear
8:59 PM 44.6 °F 38.8 °F 14.0 °F 29% 30.37 in 15.0 mi North 11.5 mph - N/A   Clear
9:47 PM 44.6 °F 38.4 °F 14.0 °F 29% 30.39 in 20.0 mi North 12.7 mph - N/A   Clear
10:15 PM 42.8 °F 38.0 °F 14.0 °F 31% 30.39 in 10.0 mi North 8.1 mph - N/A   Clear
10:35 PM 42.8 °F 38.6 °F 14.0 °F 31% 30.40 in 10.0 mi North 6.9 mph - N/A   Clear
10:55 PM 42.8 °F 38.6 °F 14.0 °F 31% 30.41 in 10.0 mi North 6.9 mph - N/A   Clear
11:15 PM 41.0 °F 36.4 °F 14.0 °F 33% 30.41 in 10.0 mi North 6.9 mph - N/A   Clear
11:35 PM 41.0 °F 36.4 °F 14.0 °F 33% 30.41 in 10.0 mi North 6.9 mph - N/A   Clear
11:55 PM 41.0 °F 36.4 °F 14.0 °F 33% 30.41 in 10.0 mi North 6.9 mph - N/A   Clear